CW3518 Weather Reports


Display with metric or nautical units.
time (UTC)temp
F
wind
direction
speed
MPH
gust
MPH
rain 1hr
in
rain 24hr
in
rain mn
in
humidity
%
barometer
mb
20260831224510 97 208 9.0 16.0 0.00 0.00 0.00 30 1014.0
20260831224009 97 191 11.0 17.0 0.00 0.00 0.00 30 1014.0
20260831223510 98 195 15.0 17.0 0.00 0.00 0.00 29 1014.0
20260831223009 97 156 9.0 17.0 0.00 0.00 0.00 30 1014.1
20260831222509 98 134 15.0 15.0 0.00 0.00 0.00 29 1014.0
20260831222009 98 176 5.0 13.0 0.00 0.00 0.00 28 1014.1
20260831221509 98 191 13.0 19.0 0.00 0.00 0.00 28 1014.1
20260831221009 98 151 11.0 19.0 0.00 0.00 0.00 29 1014.2
20260831220509 99 151 14.0 15.0 0.00 0.00 0.00 30 1014.2
20260831220009 99 183 12.0 15.0 0.00 0.00 0.00 29 1014.2
20260831215509 98 135 11.0 16.0 0.00 0.00 0.00 29 1014.2
20260831215009 98 165 7.0 16.0 0.00 0.00 0.00 29 1014.3
20260831214509 98 163 12.0 20.0 0.00 0.00 0.00 28 1014.4
20260831213509 97 134 7.0 16.0 0.00 0.00 0.00 31 1014.4
20260831213008 98 171 11.0 17.0 0.00 0.00 0.00 29 1014.5
20260831212009 98 129 11.0 20.0 0.00 0.00 0.00 28 1014.6
20260831211508 98 178 11.0 20.0 0.00 0.00 0.00 28 1014.5
20260831211008 98 164 13.0 17.0 0.00 0.00 0.00 29 1014.6
20260831210508 98 122 15.0 17.0 0.00 0.00 0.00 27 1014.6
20260831205508 98 210 11.0 16.0 0.00 0.00 0.00 28 1014.8
20260831205008 98 208 10.0 18.0 0.00 0.00 0.00 28 1015.0
20260831204508 98 177 10.0 21.0 0.00 0.00 0.00 27 1015.0
20260831204008 98 154 18.0 21.0 0.00 0.00 0.00 29 1014.9
20260831203008 96 166 11.0 18.0 0.00 0.00 0.00 30 1015.2
20260831202508 96 152 15.0 18.0 0.00 0.00 0.00 31 1015.3
20260831201507 96 156 13.0 19.0 0.00 0.00 0.00 32 1015.4
20260831201007 95 124 13.0 21.0 0.00 0.00 0.00 32 1015.4
20260831200508 96 166 13.0 21.0 0.00 0.00 0.00 32 1015.4
20260831200007 96 175 12.0 21.0 0.00 0.00 0.00 31 1015.4
20260831195007 98 197 12.0 20.0 0.00 0.00 0.00 31 1015.5
20260831194507 96 162 9.0 15.0 0.00 0.00 0.00 31 1015.6
20260831193507 96 117 13.0 20.0 0.00 0.00 0.00 33 1015.8
20260831193007 95 128 10.0 20.0 0.00 0.00 0.00 32 1015.8
20260831192507 95 133 15.0 18.0 0.00 0.00 0.00 32 1015.8
20260831192007 96 176 13.0 16.0 0.00 0.00 0.00 34 1015.8
20260831191508 97 157 15.0 20.0 0.00 0.00 0.00 33 1015.8
20260831191007 96 170 10.0 20.0 0.00 0.00 0.00 33 1016.0
20260831190507 95 194 5.0 20.0 0.00 0.00 0.00 33 1016.1
20260831190007 95 138 20.0 20.0 0.00 0.00 0.00 33 1015.9
20260831185507 95 149 7.0 18.0 0.00 0.00 0.00 33 1016.1
20260831185006 96 217 11.0 18.0 0.00 0.00 0.00 32 1016.2
20260831184006 96 143 13.0 20.0 0.00 0.00 0.00 34 1016.3
20260831183536 94 165 8.0 20.0 0.00 0.00 0.00 33 1016.4
20260831183006 96 130 11.0 19.0 0.00 0.00 0.00 33 1016.3
20260831182506 95 187 10.0 17.0 0.00 0.00 0.00 34 1016.5
20260831182006 95 174 9.0 17.0 0.00 0.00 0.00 34 1016.6
20260831181508 96 178 14.0 22.0 0.00 0.00 0.00 32 1016.6
20260831181007 96 152 11.0 22.0 0.00 0.00 0.00 33 1016.7
20260831180506 95 179 10.0 18.0 0.00 0.00 0.00 34 1016.8
20260831180006 95 212 17.0 18.0 0.00 0.00 0.00 34 1016.9
20260831175506 96 164 11.0 20.0 0.00 0.00 0.00 33 1016.9
20260831174506 95 179 11.0 18.0 0.00 0.00 0.00 34 1017.1
20260831174006 95 197 10.0 18.0 0.00 0.00 0.00 35 1017.1
20260831173507 95 171 13.0 19.0 0.00 0.00 0.00 35 1017.1
20260831173006 95 187 9.0 19.0 0.00 0.00 0.00 35 1017.3
20260831172506 95 202 16.0 18.0 0.00 0.00 0.00 35 1017.2
20260831172006 94 176 16.0 18.0 0.00 0.00 0.00 35 1017.2
20260831171505 94 195 7.0 18.0 0.00 0.00 0.00 35 1017.4
20260831171006 95 170 9.0 18.0 0.00 0.00 0.00 35 1017.4
20260831170506 94 196 5.0 16.0 0.00 0.00 0.00 36 1017.4
20260831165505 94 189 9.0 16.0 0.00 0.00 0.00 36 1017.4
20260831164505 94 194 9.0 18.0 0.00 0.00 0.00 37 1017.5
20260831164005 93 223 14.0 18.0 0.00 0.00 0.00 37 1017.5
20260831163505 93 160 12.0 18.0 0.00 0.00 0.00 38 1017.5
20260831163005 94 216 13.0 20.0 0.00 0.00 0.00 37 1017.5
20260831162507 93 224 13.0 20.0 0.00 0.00 0.00 38 1017.5
20260831162005 93 182 12.0 18.0 0.00 0.00 0.00 38 1017.5
20260831161506 92 194 14.0 15.0 0.00 0.00 0.00 38 1017.5
20260831153510 90 194 11.0 16.0 0.00 0.00 0.00 43 1017.5
20260831152531 90 190 9.0 18.0 0.00 0.00 0.00 43 1017.5
20260831152037 89 199 9.0 18.0 0.00 0.00 0.00 45 1017.5
20260831151531 89 219 12.0 17.0 0.00 0.00 0.00 44 1017.5
20260831150002 88 214 12.0 15.0 0.00 0.00 0.00 48 1017.5
20260831145531 87 210 13.0 17.0 0.00 0.00 0.00 49 1017.5
20260831145003 87 199 12.0 17.0 0.00 0.00 0.00 52 1017.5
20260831144501 86 202 8.0 17.0 0.00 0.00 0.00 54 1017.5
20260831144001 86 213 17.0 17.0 0.00 0.00 0.00 55 1017.5
20260831143010 86 207 9.0 15.0 0.00 0.00 0.00 56 1017.5
20260831142501 85 224 15.0 16.0 0.00 0.00 0.00 56 1017.5
20260831142003 86 229 15.0 16.0 0.00 0.00 0.00 56 1017.4
20260831141501 85 206 11.0 15.0 0.00 0.00 0.00 58 1017.4
20260831141001 85 201 12.0 15.0 0.00 0.00 0.00 58 1017.4
20260831140501 85 191 9.0 15.0 0.00 0.00 0.00 59 1017.3
20260831140031 85 202 9.0 13.0 0.00 0.00 0.00 60 1017.4
20260831135531 84 204 9.0 12.0 0.00 0.00 0.00 62 1017.4
20260831135030 84 189 9.0 11.0 0.00 0.00 0.00 63 1017.3
20260831134530 83 202 7.0 11.0 0.00 0.00 0.00 64 1017.3
20260831134030 83 206 10.0 11.0 0.00 0.00 0.00 64 1017.2
20260831133505 82 196 11.0 11.0 0.00 0.00 0.00 65 1017.2
20260831133001 82 210 4.0 7.0 0.00 0.00 0.00 66 1017.2
20260831132505 81 205 6.0 7.0 0.00 0.00 0.00 67 1017.2
20260831132001 81 154 3.0 7.0 0.00 0.00 0.00 68 1017.1
20260831131500 80 215 6.0 7.0 0.00 0.00 0.00 68 1017.1
20260831131000 80 188 4.0 5.0 0.00 0.00 0.00 69 1017.0
20260831130500 80 206 4.0 5.0 0.00 0.00 0.00 69 1016.8
20260831125500 79 175 3.0 5.0 0.00 0.00 0.00 71 1016.6
20260831125000 78 168 4.0 5.0 0.00 0.00 0.00 72 1016.5
20260831124500 78 141 4.0 5.0 0.00 0.00 0.00 72 1016.4
20260831123959 78 141 3.0 5.0 0.00 0.00 0.00 73 1016.3
20260831123500 78 162 5.0 6.0 0.00 0.00 0.00 72 1016.3
20260831122530 77 144 5.0 6.0 0.00 0.00 0.00 72 1016.1
20260831122000 77 139 4.0 6.0 0.00 0.00 0.00 72 1016.1
20260831121030 78 147 5.0 6.0 0.00 0.00 0.00 72 1016.0
20260831120530 78 182 2.0 4.0 0.00 0.00 0.00 71 1015.8
20260831115530 78 187 3.0 4.0 0.00 0.00 0.00 71 1015.6
20260831115029 78 189 3.0 4.0 0.00 0.00 0.00 71 1015.6
20260831114529 78 169 4.0 4.0 0.00 0.00 0.00 70 1015.6
20260831114029 78 185 4.0 4.0 0.00 0.00 0.00 70 1015.5
20260831113029 78 191 4.0 5.0 0.00 0.00 0.00 70 1015.5
20260831112529 78 191 4.0 6.0 0.00 0.00 0.00 69 1015.5
20260831112029 78 199 5.0 6.0 0.00 0.00 0.00 69 1015.4
20260831110959 79 225 6.0 6.0 0.00 0.00 0.00 68 1015.3
20260831110459 79 197 4.0 5.0 0.00 0.00 0.00 68 1015.3
20260831105959 79 177 5.0 6.0 0.00 0.00 0.00 68 1015.3
20260831105459 79 179 6.0 6.0 0.00 0.00 0.00 68 1015.3
20260831104959 79 193 4.0 6.0 0.00 0.00 0.00 68 1015.3
20260831104529 79 211 5.0 7.0 0.00 0.00 0.00 67 1015.3
20260831104028 79 203 5.0 7.0 0.00 0.00 0.00 67 1015.2
20260831103458 80 224 5.0 6.0 0.00 0.00 0.00 66 1015.1
20260831102958 80 222 6.0 6.0 0.00 0.00 0.00 66 1015.2
20260831102529 80 217 6.0 7.0 0.00 0.00 0.00 66 1015.2
20260831102028 80 231 6.0 7.0 0.00 0.00 0.00 65 1015.2
20260831101528 80 228 5.0 8.0 0.00 0.00 0.00 65 1015.3
20260831101028 81 223 6.0 8.0 0.00 0.00 0.00 64 1015.3
20260831100528 81 211 7.0 8.0 0.00 0.00 0.00 64 1015.2
20260831100028 81 203 8.0 9.0 0.00 0.00 0.00 63 1015.2
20260831095528 81 204 7.0 9.0 0.00 0.00 0.00 63 1015.2
20260831095028 81 195 9.0 11.0 0.00 0.00 0.00 62 1015.1
20260831094528 81 206 6.0 11.0 0.00 0.00 0.00 62 1015.1
20260831094028 82 216 7.0 10.0 0.00 0.00 0.00 62 1015.0
20260831093528 82 211 9.0 11.0 0.00 0.00 0.00 62 1015.0
20260831092958 82 211 8.0 11.0 0.00 0.00 0.00 62 1015.0
20260831092458 82 213 7.0 11.0 0.00 0.00 0.00 61 1015.0
20260831092028 82 210 9.0 10.0 0.00 0.00 0.00 61 1015.0
20260831091528 82 203 10.0 12.0 0.00 0.00 0.00 61 1014.9
20260831091029 82 195 8.0 12.0 0.00 0.00 0.00 61 1014.8
20260831090528 82 210 8.0 12.0 0.00 0.00 0.00 61 1014.8
20260831090027 82 200 10.0 13.0 0.00 0.00 0.00 61 1014.8
20260831085528 82 209 11.0 13.0 0.00 0.00 0.00 60 1014.8
20260831085027 82 216 11.0 13.0 0.00 0.00 0.00 59 1014.7
20260831084027 82 214 10.0 15.0 0.00 0.00 0.00 58 1014.7
20260831083457 82 212 11.0 12.0 0.00 0.00 0.00 58 1014.7
20260831083027 82 211 9.0 12.0 0.00 0.00 0.00 57 1014.7
20260831082457 82 209 8.0 11.0 0.00 0.00 0.00 57 1014.8
20260831081957 81 196 8.0 9.0 0.00 0.00 0.00 57 1014.9
20260831081457 81 204 7.0 11.0 0.00 0.00 0.00 56 1014.9
20260831080527 80 213 9.0 9.0 0.00 0.00 0.00 57 1014.8
20260831080027 80 231 6.0 6.0 0.00 0.00 0.00 58 1014.9
20260831075027 81 219 5.0 6.0 0.00 0.00 0.00 56 1014.9
20260831074027 82 202 5.0 6.0 0.00 0.00 0.00 55 1014.8
20260831073527 82 203 5.0 6.0 0.00 0.00 0.00 55 1014.8
20260831072527 82 202 7.0 7.0 0.00 0.00 0.00 55 1014.7
20260831072027 82 196 6.0 7.0 0.00 0.00 0.00 56 1014.6
20260831071527 82 169 5.0 7.0 0.00 0.00 0.00 56 1014.6
20260831071027 82 174 6.0 7.0 0.00 0.00 0.00 56 1014.7
20260831070527 82 164 6.0 8.0 0.00 0.00 0.00 56 1014.7
20260831065526 82 157 6.0 7.0 0.00 0.00 0.00 55 1014.8
20260831065026 82 167 6.0 7.0 0.00 0.00 0.00 55 1014.8
20260831064457 82 147 7.0 7.0 0.00 0.00 0.00 55 1014.8
20260831064026 83 151 6.0 8.0 0.00 0.00 0.00 54 1014.8
20260831063526 83 149 7.0 9.0 0.00 0.00 0.00 54 1014.8
20260831063026 83 162 6.0 9.0 0.00 0.00 0.00 53 1014.8
20260831062526 84 160 7.0 9.0 0.00 0.00 0.00 53 1014.8
20260831062026 84 158 8.0 9.0 0.00 0.00 0.00 53 1014.8
20260831061526 84 148 7.0 9.0 0.00 0.00 0.00 53 1014.8
20260831061026 84 152 8.0 8.0 0.00 0.00 0.00 52 1014.8
20260831060526 84 150 7.0 8.0 0.00 0.00 0.00 52 1014.9
20260831060026 84 144 6.0 8.0 0.00 0.00 0.00 51 1014.8
20260831055526 84 147 8.0 9.0 0.00 0.00 0.00 51 1014.8
20260831055026 84 154 7.0 9.0 0.00 0.00 0.00 51 1014.7
20260831054456 85 148 7.0 9.0 0.00 0.00 0.00 50 1014.7
20260831054026 85 158 7.0 8.0 0.00 0.00 0.00 50 1014.7
20260831053026 84 206 5.0 9.0 0.00 0.00 0.00 51 1014.8
20260831052455 84 221 6.0 12.0 0.00 0.00 0.00 51 1014.8
20260831052025 85 167 6.0 12.0 0.00 0.00 0.00 49 1014.6
20260831051525 85 135 10.0 11.0 0.00 0.00 0.00 49 1014.6
20260831051025 85 124 9.0 11.0 0.00 0.00 0.00 48 1014.5
20260831050525 85 127 9.0 10.0 0.00 0.00 0.00 48 1014.5
20260831045025 86 136 7.0 8.0 0.00 0.00 0.00 47 1014.4
20260831044525 86 137 7.0 8.0 0.00 0.00 0.00 46 1014.5
20260831044025 87 144 7.0 7.0 0.00 0.00 0.00 45 1014.5
20260831043525 87 136 6.0 7.0 0.00 0.00 0.00 45 1014.6
20260831043025 87 138 6.0 7.0 0.00 0.00 0.00 45 1014.6
20260831042525 87 139 6.0 7.0 0.00 0.00 0.00 44 1014.6
20260831042025 87 139 5.0 8.0 0.00 0.00 0.00 44 1014.6
20260831041525 88 155 7.0 8.0 0.00 0.00 0.00 44 1014.6
20260831041025 88 153 6.0 7.0 0.00 0.00 0.00 43 1014.7
20260831040524 88 164 6.0 7.0 0.00 0.00 0.00 43 1014.6
20260831035025 88 154 6.0 7.0 0.00 0.00 0.00 43 1014.5
20260831034524 87 139 6.0 7.0 0.00 0.00 0.00 43 1014.4
20260831033524 88 138 7.0 7.0 0.00 0.00 0.00 42 1014.4
20260831032524 88 137 7.0 7.0 0.00 0.00 0.00 41 1014.5
20260831032024 88 143 7.0 8.0 0.00 0.00 0.00 41 1014.5
20260831031524 88 143 6.0 9.0 0.00 0.00 0.00 41 1014.4
20260831031024 88 133 7.0 9.0 0.00 0.00 0.00 40 1014.3
20260831030524 89 126 7.0 8.0 0.00 0.00 0.00 40 1014.2
20260831030024 88 123 7.0 8.0 0.00 0.00 0.00 40 1014.2
20260831025524 88 124 7.0 7.0 0.00 0.00 0.00 40 1014.1
20260831025024 89 133 6.0 7.0 0.00 0.00 0.00 39 1014.1
20260831024524 89 129 7.0 7.0 0.00 0.00 0.00 39 1014.1
20260831024024 89 121 6.0 7.0 0.00 0.00 0.00 38 1014.1
20260831023026 89 129 4.0 7.0 0.00 0.00 0.00 37 1013.9
20260831022524 90 141 5.0 7.0 0.00 0.00 0.00 37 1013.9
20260831022024 90 156 7.0 7.0 0.00 0.00 0.00 37 1013.6
20260831021024 90 156 7.0 7.0 0.00 0.00 0.00 36 1013.5
20260831020024 90 144 6.0 7.0 0.00 0.00 0.00 36 1013.4
20260831015524 90 131 6.0 7.0 0.00 0.00 0.00 36 1013.3
20260831014523 90 132 5.0 7.0 0.00 0.00 0.00 35 1013.2
20260831014024 90 132 6.0 7.0 0.00 0.00 0.00 35 1013.2
20260831013524 91 129 7.0 7.0 0.00 0.00 0.00 34 1013.2
20260831013024 91 142 6.0 7.0 0.00 0.00 0.00 33 1013.1
20260831012523 92 144 7.0 7.0 0.00 0.00 0.00 33 1013.1
20260831011524 92 135 5.0 8.0 0.00 0.00 0.00 33 1013.1
20260831011023 92 139 7.0 8.0 0.00 0.00 0.00 32 1013.0
20260831010523 93 144 6.0 7.0 0.00 0.00 0.00 32 1013.0
20260831010023 93 140 5.0 9.0 0.00 0.00 0.00 32 1013.0
20260831005523 94 144 6.0 9.0 0.00 0.00 0.00 32 1013.0
20260831005023 94 168 5.0 9.0 0.00 0.00 0.00 31 1013.0
20260831004523 95 164 7.0 10.0 0.00 0.00 0.00 31 1013.0
20260831004022 95 165 6.0 10.0 0.00 0.00 0.00 30 1013.0
20260831003523 95 168 7.0 12.0 0.00 0.00 0.00 30 1013.0
20260831003022 96 149 8.0 15.0 0.00 0.00 0.00 29 1012.9
20260831002523 96 151 8.0 15.0 0.00 0.00 0.00 29 1012.9
20260831002022 96 163 11.0 14.0 0.00 0.00 0.00 29 1012.9
20260831001522 96 169 12.0 14.0 0.00 0.00 0.00 29 1012.9
20260831001022 97 162 7.0 18.0 0.00 0.00 0.00 29 1013.0
20260831000522 97 190 9.0 18.0 0.00 0.00 0.00 29 1012.9
20260831000022 97 168 9.0 14.0 0.00 0.00 0.00 29 1012.9
20260830235522 97 156 11.0 14.0 0.00 0.00 0.00 29 1012.9
20260830235022 98 130 11.0 14.0 0.00 0.00 0.00 28 1012.9
20260830234521 98 181 7.0 13.0 0.00 0.00 0.00 28 1013.0
20260830234021 98 172 11.0 15.0 0.00 0.00 0.00 28 1012.9
20260830233522 98 134 10.0 17.0 0.00 0.00 0.00 28 1012.9
20260830233021 98 158 10.0 17.0 0.00 0.00 0.00 28 1012.9
20260830232521 98 202 8.0 16.0 0.00 0.00 0.00 28 1012.9
20260830232021 98 145 10.0 15.0 0.00 0.00 0.00 28 1012.8
20260830231021 99 171 15.0 15.0 0.00 0.00 0.00 26 1012.9
20260830230521 99 201 4.0 13.0 0.00 0.00 0.00 27 1013.0
20260830225521 99 190 9.0 16.0 0.00 0.00 0.00 26 1013.1
20260830225021 99 175 12.0 17.0 0.00 0.00 0.00 26 1013.1